OPS 4682 DEB, 49110

Orbit data source: Space-Track

OPS 4682 DEB, 49110 is space debris in LEO originally from a launch on Sat, 03 Apr 1965 UTC launched from the Air Force Western Test Range (AFWTR). Debris objects in space refer to the collection of defunct objects orbiting the Earth. Examples of debris include non-operational satellites, rocket bodies, and fragments generated from explosions, collisions, or faulty payload assembly.

Loading next visibility...
Identifier
49110, 1965-027FT
Orbit
LEO
Country
Flag of USUS
Related business
Manufacturer
Unknown
Mission
Spacecraft
Bus & Motor
Unknown
Mass
Unknown
Launch date (UTC)
1965-04-03 (61 years ago)
Launch vehicle
Unknown
Launch site
Air Force Western Test Range (AFWTR)
Object type
Payload
Rocket body
Debris
Shape & HBR
Unknown
Radar Cross Section
Medium (>0.1 m² and <1 m²)

Expand to show TLE details & history
Last TLE update: 5 days ago

TLE from 5 days ago
0 OPS 4682 DEB
1 49110U 65027FT  26202.89898472 -.00000200  00000-0 -69665-3 0  9991
2 49110  90.2522  13.6869 0036349 299.9889  59.7627 12.99131966440842
Epoch: 2026-07-21T21:34Z
TLE epoch observation values (Epoch: 2026-07-21T21:34:32.279Z)
Latitude
-0.00002°
Longitude
110.39034°
Altitude
1,254.453 km
Speed
7.235 km/s
True Right ascension
00h 54m 44s
True Declination
0° 00' 00"
Sunlit
Object was in daylight at epoch
Visualization orbit readout
Latitude
Unknown
Longitude
Unknown
Altitude
Unknown
Speed
Unknown
Apparent Right ascension
Unknown
Apparent Declination
Unknown
Sunlit
N/A
Visualization observer readout
Local Sidereal Time
18:06:53
Azimuth
Unknown
Elevation
Unknown
Doppler factor
Unknown
Orbital elements
Apogee altitude
1,290.391 km
Perigee altitude
1,234.844 km
Semi-major axis
7,640.755 km
Eccentricity
0.00363
Inclination
90.2522°
RAAN
13.6869°
Arg. of periapsis
299.9889°
True anomaly
60.12338°
Mean anomaly
59.7627°
Eccentric anomaly
59.94296°
Mean motion
3.24967 °/min
Orbital period
110.78 mins
BSTAR
-0.00069665
Loading maneuver chart data...
Computing Atmospheric mass density...
Loading historical data...
Loading historical data...
Loading historical data...
Loading historical data...
Loading historical data...
Loading historical data...
Loading historical data...

Documentation

Showing up to 5 results
|